230P/LINEAR (2009)

Japanese version
Home page
Updated on July 21, 2011

---------------------------------------------------------------------

* Profile

Designation 230P/2009 U6
Discovery Date October 27, 2009
Magnitude 18.2 mag
Discoverer Lincoln Laboratory Near-Earth Asteroid Research project

* Pictures

* Orbital Elements

Epoch 2009 July 28.0 TT = JDT 2455040.5
T 2009 Aug. 8.82330 TT                                  MPC
q   1.4859733            (2000.0)            P               Q
n   0.15728510     Peri.  308.72702     +0.45779119     -0.85783867
a   3.3989465      Node   112.50918     +0.87382239     +0.38572033
e   0.5628136      Incl.   14.64306     +0.16389527     +0.33960661
P   6.27

* Finding Charts

* Magnitudes Graph

        m1 = 13.2 + 5 log d + 10.0 log r

---------------------------------------------------------------------

The orbital elements are published on M.P.E.C. 2009-X47.
The charts are made with StellaNavigator Ver.8 (AstroArts).
The magnitudes graphs are made with Comet for Windows.

---------------------------------------------------------------------

Copyright(C) Seiichi Yoshida (comet@aerith.net). All rights reserved.